When you browse on this site, cookies collect data to enhance your experience and personalize the content and advertising you see.
Visit our Privacy Policy to learn more. By continuing to use the site, you agree to this use of cookies and data.
  • In Austria
  • List of Countries
  • For 7 days
  • Water Temperature
  • Satellite Maps
  • Weather Map
  • News
  • Weather Widgets
  • user-avatar
    Login

    Hourly Weather Cottonwood Heights

    Today, 26 June, Wednesday

    Time Temperature Precipitation Wind Pressure Humidity
    00:00 +18°C° 0 mm 2 mps 632 mmHg 27%
    01:00 +18°C° 0 mm 2 mps 632 mmHg 27%
    02:00 +17°C° 0 mm 2 mps 632 mmHg 27%
    03:00 +17°C° 0 mm 2 mps 632 mmHg 27%
    04:00 +17°C° 0 mm 3 mps 632 mmHg 27%
    05:00 +17°C° 0 mm 3 mps 632 mmHg 27%
    06:00 +19°C° 0 mm 3 mps 633 mmHg 26%
    07:00 +21°C° 0 mm 3 mps 634 mmHg 26%
    08:00 +23°C° 0 mm 4 mps 635 mmHg 25%
    09:00 +25°C° 0 mm 4 mps 635 mmHg 22%
    10:00 +26°C° 0 mm 4 mps 635 mmHg 20%
    11:00 +28°C° 0 mm 5 mps 636 mmHg 17%
    12:00 +29°C° 0 mm 5 mps 635 mmHg 17%
    13:00 +29°C° 0 mm 5 mps 635 mmHg 17%
    14:00 +30°C° 0 mm 6 mps 635 mmHg 17%
    15:00 +30°C° 0 mm 6 mps 635 mmHg 19%
    16:00 +30°C° 0 mm 6 mps 635 mmHg 20%
    17:00 +29°C° 0 mm 6 mps 635 mmHg 22%
    18:00 +27°C° 0 mm 5 mps 634 mmHg 23%
    19:00 +25°C° 0 mm 5 mps 634 mmHg 24%
    20:00 +22°C° 0 mm 4 mps 633 mmHg 26%
    21:00 +21°C° 0 mm 4 mps 633 mmHg 26%
    22:00 +20°C° 0 mm 4 mps 634 mmHg 26%
    23:00 +20°C° 0 mm 3 mps 634 mmHg 26%

    Tomorrow, 27 June, Thursday

    Time Temperature Precipitation Wind Pressure Humidity
    00:00 +19°C° 0 mm 3 mps 634 mmHg 26%
    01:00 +19°C° 0 mm 3 mps 634 mmHg 27%
    02:00 +18°C° 0 mm 3 mps 634 mmHg 28%
    03:00 +18°C° 0 mm 3 mps 634 mmHg 28%
    04:00 +18°C° 0 mm 3 mps 634 mmHg 28%
    05:00 +17°C° 0 mm 3 mps 634 mmHg 28%
    06:00 +19°C° 0 mm 3 mps 635 mmHg 28%
    07:00 +21°C° 0 mm 3 mps 635 mmHg 28%
    08:00 +23°C° 0 mm 4 mps 636 mmHg 28%
    09:00 +25°C° 0 mm 4 mps 636 mmHg 25%
    10:00 +27°C° 0 mm 5 mps 636 mmHg 23%
    11:00 +28°C° 0 mm 5 mps 637 mmHg 20%
    12:00 +29°C° 0 mm 6 mps 637 mmHg 20%
    13:00 +30°C° 0 mm 6 mps 637 mmHg 19%
    14:00 +30°C° 0 mm 6 mps 637 mmHg 18%
    15:00 +30°C° 0 mm 6 mps 636 mmHg 19%
    16:00 +30°C° 0 mm 6 mps 636 mmHg 19%
    17:00 +30°C° 0 mm 6 mps 636 mmHg 19%
    18:00 +28°C° 0 mm 5 mps 635 mmHg 21%
    19:00 +25°C° 0 mm 4 mps 635 mmHg 22%
    20:00 +22°C° 0 mm 3 mps 634 mmHg 24%
    21:00 +21°C° 0 mm 3 mps 634 mmHg 23%
    22:00 +20°C° 0 mm 3 mps 634 mmHg 23%
    23:00 +20°C° 0 mm 3 mps 635 mmHg 23%

    Day after tomorrow, 28 June, Friday

    Time Temperature Precipitation Wind Pressure Humidity
    00:00 +19°C° 0 mm 3 mps 635 mmHg 23%
    01:00 +19°C° 0 mm 3 mps 635 mmHg 24%
    02:00 +18°C° 0 mm 3 mps 634 mmHg 25%
    03:00 +18°C° 0 mm 3 mps 634 mmHg 26%
    04:00 +17°C° 0 mm 3 mps 634 mmHg 27%
    05:00 +17°C° 0 mm 3 mps 634 mmHg 27%
    06:00 +19°C° 0 mm 3 mps 635 mmHg 27%
    07:00 +21°C° 0 mm 3 mps 636 mmHg 27%
    08:00 +25°C° 0 mm 3 mps 637 mmHg 26%
    09:00 +26°C° 0 mm 4 mps 637 mmHg 23%
    10:00 +28°C° 0 mm 4 mps 637 mmHg 20%
    11:00 +29°C° 0 mm 5 mps 638 mmHg 17%
    12:00 +30°C° 0 mm 5 mps 638 mmHg 17%
    13:00 +32°C° 0 mm 5 mps 638 mmHg 16%
    14:00 +32°C° 0 mm 5 mps 637 mmHg 15%
    15:00 +32°C° 0 mm 5 mps 637 mmHg 16%
    16:00 +32°C° 0 mm 5 mps 637 mmHg 16%
    17:00 +33°C° 0 mm 6 mps 636 mmHg 17%
    18:00 +29°C° 0 mm 5 mps 636 mmHg 18%
    19:00 +27°C° 0 mm 4 mps 635 mmHg 19%
    20:00 +24°C° 0 mm 3 mps 634 mmHg 20%
    21:00 +22°C° 0 mm 3 mps 635 mmHg 20%
    22:00 +21°C° 0 mm 3 mps 635 mmHg 20%
    23:00 +21°C° 0 mm 3 mps 636 mmHg 20%

    29 June, Saturday

    Time Temperature Precipitation Wind Pressure Humidity
    00:00 +19°C° 0 mm 2 mps 636 mmHg 23%
    01:00 +18°C° 0 mm 2 mps 636 mmHg 26%
    02:00 +18°C° 0 mm 1 mps 635 mmHg 29%
    03:00 +18°C° 0 mm 1 mps 636 mmHg 30%
    04:00 +16°C° 0 mm 1 mps 636 mmHg 32%
    05:00 +16°C° 0 mm 1 mps 636 mmHg 33%
    06:00 +19°C° 0 mm 1 mps 637 mmHg 31%
    07:00 +21°C° 0 mm 1 mps 638 mmHg 29%
    08:00 +24°C° 0 mm 1 mps 638 mmHg 27%
    09:00 +25°C° 0 mm 2 mps 639 mmHg 25%
    10:00 +27°C° 0 mm 3 mps 639 mmHg 21%
    11:00 +29°C° 0 mm 4 mps 639 mmHg 17%
    12:00 +29°C° 0 mm 4 mps 639 mmHg 18%
    13:00 +29°C° 0 mm 4 mps 639 mmHg 20%
    14:00 +30°C° 0 mm 4 mps 638 mmHg 21%
    15:00 +30°C° 0 mm 4 mps 638 mmHg 21%
    16:00 +29°C° 0 mm 4 mps 638 mmHg 22%
    17:00 +29°C° 0 mm 4 mps 638 mmHg 23%
    18:00 +27°C° 0 mm 4 mps 638 mmHg 28%
    19:00 +24°C° 0 mm 3 mps 637 mmHg 34%
    20:00 +21°C° 0 mm 2 mps 637 mmHg 39%
    21:00 +20°C° 0 mm 2 mps 637 mmHg 41%
    22:00 +20°C° 0 mm 2 mps 637 mmHg 43%
    23:00 +19°C° 0 mm 2 mps 637 mmHg 44%

    30 June, Sunday

    Time Temperature Precipitation Wind Pressure Humidity
    00:00 +19°C° 0 mm 2 mps 637 mmHg 45%
    01:00 +18°C° 0 mm 2 mps 636 mmHg 45%
    02:00 +18°C° 0 mm 2 mps 636 mmHg 45%
    03:00 +19°C° 0 mm 2 mps 636 mmHg 44%
    04:00 +19°C° 0 mm 2 mps 636 mmHg 43%
    05:00 +19°C° 0 mm 2 mps 637 mmHg 42%
    06:00 +20°C° 0 mm 2 mps 637 mmHg 44%
    07:00 +21°C° 0 mm 2 mps 637 mmHg 46%
    08:00 +23°C° 0 mm 2 mps 638 mmHg 48%
    09:00 +23°C° 0 mm 2 mps 638 mmHg 47%
    10:00 +24°C° 0 mm 2 mps 638 mmHg 47%
    11:00 +24°C° 0 mm 2 mps 638 mmHg 46%
    12:00 +25°C° 0.2 mm 2 mps 638 mmHg 46%
    13:00 +26°C° 0.2 mm 3 mps 638 mmHg 45%
    14:00 +27°C° 0.2 mm 3 mps 637 mmHg 45%
    15:00 +28°C° 0.1 mm 3 mps 637 mmHg 43%
    16:00 +28°C° 0.1 mm 3 mps 637 mmHg 41%
    17:00 +28°C° 0.1 mm 2 mps 637 mmHg 38%
    18:00 +27°C° 0.2 mm 2 mps 636 mmHg 46%
    19:00 +25°C° 0.2 mm 2 mps 635 mmHg 53%
    20:00 +23°C° 0.2 mm 2 mps 634 mmHg 61%
    21:00 +21°C° 0.2 mm 3 mps 634 mmHg 63%
    22:00 +20°C° 0.2 mm 3 mps 634 mmHg 65%
    23:00 +19°C° 0.2 mm 3 mps 635 mmHg 67%

    1 July, Monday

    Time Temperature Precipitation Wind Pressure Humidity
    00:00 +19°C° 0.2 mm 3 mps 634 mmHg 68%
    01:00 +19°C° 0.2 mm 3 mps 634 mmHg 68%
    02:00 +19°C° 0.2 mm 3 mps 634 mmHg 68%
    03:00 +18°C° 0 mm 3 mps 634 mmHg 68%
    04:00 +18°C° 0 mm 3 mps 634 mmHg 68%
    05:00 +18°C° 0 mm 3 mps 634 mmHg 68%
    06:00 +20°C° 0 mm 3 mps 635 mmHg 61%
    07:00 +23°C° 0 mm 2 mps 636 mmHg 54%
    08:00 +25°C° 0 mm 2 mps 636 mmHg 48%
    09:00 +27°C° 0 mm 3 mps 637 mmHg 41%
    10:00 +28°C° 0 mm 4 mps 637 mmHg 34%
    11:00 +30°C° 0 mm 4 mps 637 mmHg 28%
    12:00 +30°C° 0 mm 5 mps 637 mmHg 25%
    13:00 +32°C° 0 mm 5 mps 637 mmHg 22%
    14:00 +33°C° 0 mm 5 mps 636 mmHg 19%
    15:00 +32°C° 0 mm 5 mps 636 mmHg 19%
    16:00 +32°C° 0 mm 5 mps 635 mmHg 19%
    17:00 +32°C° 0 mm 4 mps 635 mmHg 19%
    18:00 +28°C° 0 mm 3 mps 634 mmHg 24%
    19:00 +26°C° 0 mm 2 mps 633 mmHg 29%
    20:00 +23°C° 0 mm 1 mps 632 mmHg 34%
    21:00 +22°C° 0 mm 1 mps 633 mmHg 36%
    22:00 +21°C° 0 mm 1 mps 633 mmHg 38%
    23:00 +20°C° 0 mm 1 mps 633 mmHg 40%
    Show more